• Em Portugal
  • Lista de países
  • Para 7 dias
  • Temperatura da água
  • Mapas de satélite
  • Mapa do tempo
  • Widgets de tempo
  • user-avatar
    Iniciar Sessão

    Previsão horária em Monte Carlo

    Hoje, 19 Outubro, Quinta-feira

    Tempo Temperatura Precipitação Vento Pressão Humidade
    00:00 +15°C° 0 mm 5 m/s 749 mmHg 62%
    01:00 +15°C° 0 mm 5 m/s 749 mmHg 62%
    02:00 +15°C° 0 mm 5 m/s 749 mmHg 62%
    03:00 +15°C° 0 mm 5 m/s 749 mmHg 62%
    04:00 +15°C° 0 mm 5 m/s 749 mmHg 62%
    05:00 +15°C° 0 mm 6 m/s 748 mmHg 62%
    06:00 +14°C° 0 mm 6 m/s 748 mmHg 62%
    07:00 +17°C° 0 mm 6 m/s 749 mmHg 57%
    08:00 +20°C° 0 mm 6 m/s 749 mmHg 53%
    09:00 +22°C° 0 mm 7 m/s 749 mmHg 49%
    10:00 +23°C° 0 mm 7 m/s 748 mmHg 48%
    11:00 +23°C° 0 mm 7 m/s 748 mmHg 47%
    12:00 +24°C° 0 mm 8 m/s 748 mmHg 45%
    13:00 +23°C° 0 mm 8 m/s 748 mmHg 48%
    14:00 +23°C° 0 mm 8 m/s 747 mmHg 50%
    15:00 +22°C° 0 mm 8 m/s 747 mmHg 53%
    16:00 +20°C° 0 mm 8 m/s 747 mmHg 62%
    17:00 +18°C° 0 mm 7 m/s 748 mmHg 71%
    18:00 +16°C° 0 mm 7 m/s 748 mmHg 80%
    19:00 +16°C° 0 mm 7 m/s 748 mmHg 79%
    20:00 +15°C° 0 mm 7 m/s 748 mmHg 78%
    21:00 +15°C° 0 mm 7 m/s 748 mmHg 77%
    22:00 +15°C° 0 mm 7 m/s 748 mmHg 76%
    23:00 +15°C° 0 mm 7 m/s 748 mmHg 74%

    Amanhã, 20 Outubro, Sexta-feira

    Tempo Temperatura Precipitação Vento Pressão Humidade
    00:00 +15°C° 0 mm 7 m/s 748 mmHg 73%
    01:00 +15°C° 0 mm 7 m/s 749 mmHg 70%
    02:00 +15°C° 0 mm 7 m/s 749 mmHg 68%
    03:00 +15°C° 0 mm 7 m/s 749 mmHg 66%
    04:00 +15°C° 0 mm 7 m/s 749 mmHg 64%
    05:00 +15°C° 0 mm 6 m/s 749 mmHg 63%
    06:00 +15°C° 0 mm 6 m/s 749 mmHg 61%
    07:00 +17°C° 0 mm 6 m/s 750 mmHg 54%
    08:00 +21°C° 0 mm 6 m/s 750 mmHg 46%
    09:00 +23°C° 0 mm 6 m/s 751 mmHg 38%
    10:00 +24°C° 0 mm 6 m/s 751 mmHg 38%
    11:00 +24°C° 0 mm 6 m/s 751 mmHg 37%
    12:00 +26°C° 0 mm 5 m/s 751 mmHg 37%
    13:00 +25°C° 0 mm 5 m/s 751 mmHg 41%
    14:00 +25°C° 0 mm 5 m/s 751 mmHg 44%
    15:00 +23°C° 0 mm 4 m/s 751 mmHg 48%
    16:00 +21°C° 0 mm 4 m/s 751 mmHg 58%
    17:00 +19°C° 0 mm 3 m/s 751 mmHg 68%
    18:00 +17°C° 0 mm 3 m/s 751 mmHg 78%
    19:00 +17°C° 0 mm 3 m/s 752 mmHg 76%
    20:00 +17°C° 0 mm 2 m/s 752 mmHg 73%
    21:00 +17°C° 0 mm 2 m/s 752 mmHg 71%
    22:00 +17°C° 0 mm 2 m/s 752 mmHg 69%
    23:00 +17°C° 0 mm 2 m/s 752 mmHg 68%

    Depois de amanhã, 21 Outubro, Sábado

    Tempo Temperatura Precipitação Vento Pressão Humidade
    00:00 +17°C° 0 mm 2 m/s 752 mmHg 66%
    01:00 +17°C° 0 mm 2 m/s 752 mmHg 65%
    02:00 +16°C° 0 mm 2 m/s 752 mmHg 63%
    03:00 +16°C° 0 mm 2 m/s 752 mmHg 62%
    04:00 +16°C° 0 mm 1 m/s 752 mmHg 62%
    05:00 +16°C° 0 mm 1 m/s 752 mmHg 61%
    06:00 +16°C° 0 mm 1 m/s 752 mmHg 60%
    07:00 +20°C° 0 mm 1 m/s 752 mmHg 55%
    08:00 +22°C° 0 mm 1 m/s 752 mmHg 49%
    09:00 +24°C° 0 mm 1 m/s 753 mmHg 43%
    10:00 +25°C° 0 mm 2 m/s 752 mmHg 42%
    11:00 +26°C° 0 mm 2 m/s 752 mmHg 41%
    12:00 +27°C° 0 mm 3 m/s 752 mmHg 41%
    13:00 +26°C° 0 mm 3 m/s 752 mmHg 44%
    14:00 +26°C° 0 mm 4 m/s 751 mmHg 48%
    15:00 +25°C° 0 mm 5 m/s 751 mmHg 51%
    16:00 +22°C° 0 mm 5 m/s 751 mmHg 61%
    17:00 +20°C° 0 mm 4 m/s 751 mmHg 71%
    18:00 +18°C° 0 mm 4 m/s 751 mmHg 80%
    19:00 +17°C° 0 mm 5 m/s 751 mmHg 81%
    20:00 +17°C° 0 mm 5 m/s 751 mmHg 81%
    21:00 +16°C° 0 mm 5 m/s 751 mmHg 82%
    22:00 +16°C° 0 mm 5 m/s 751 mmHg 81%
    23:00 +16°C° 0 mm 5 m/s 750 mmHg 81%

    22 Outubro, Domingo

    Tempo Temperatura Precipitação Vento Pressão Humidade
    00:00 +16°C° 0 mm 5 m/s 750 mmHg 81%
    01:00 +16°C° 0 mm 6 m/s 750 mmHg 78%
    02:00 +16°C° 0 mm 6 m/s 749 mmHg 76%
    03:00 +16°C° 0 mm 6 m/s 749 mmHg 74%
    04:00 +15°C° 0 mm 7 m/s 749 mmHg 72%
    05:00 +15°C° 0 mm 7 m/s 749 mmHg 71%
    06:00 +13°C° 0 mm 8 m/s 749 mmHg 69%
    07:00 +16°C° 0 mm 9 m/s 749 mmHg 60%
    08:00 +18°C° 0 mm 10 m/s 749 mmHg 50%
    09:00 +21°C° 0 mm 11 m/s 749 mmHg 40%
    10:00 +21°C° 0 mm 12 m/s 748 mmHg 37%
    11:00 +22°C° 0 mm 12 m/s 748 mmHg 33%
    12:00 +22°C° 0 mm 13 m/s 747 mmHg 30%
    13:00 +22°C° 0 mm 13 m/s 747 mmHg 31%
    14:00 +20°C° 0 mm 13 m/s 746 mmHg 33%
    15:00 +19°C° 0 mm 13 m/s 746 mmHg 34%
    16:00 +18°C° 0 mm 11 m/s 746 mmHg 38%
    17:00 +16°C° 0 mm 10 m/s 746 mmHg 41%
    18:00 +13°C° 0 mm 9 m/s 747 mmHg 44%
    19:00 +13°C° 0 mm 8 m/s 747 mmHg 44%
    20:00 +12°C° 0 mm 7 m/s 747 mmHg 43%
    21:00 +11°C° 0 mm 6 m/s 747 mmHg 43%
    22:00 +11°C° 0 mm 6 m/s 747 mmHg 41%
    23:00 +12°C° 0 mm 5 m/s 748 mmHg 38%

    23 Outubro, Segunda-feira

    Tempo Temperatura Precipitação Vento Pressão Humidade
    00:00 +12°C° 0 mm 5 m/s 748 mmHg 36%
    01:00 +12°C° 0 mm 4 m/s 748 mmHg 35%
    02:00 +12°C° 0 mm 4 m/s 748 mmHg 33%
    03:00 +12°C° 0 mm 4 m/s 748 mmHg 32%
    04:00 +12°C° 0 mm 3 m/s 749 mmHg 31%
    05:00 +11°C° 0 mm 3 m/s 749 mmHg 30%
    06:00 +11°C° 0 mm 3 m/s 749 mmHg 29%
    07:00 +15°C° 0 mm 2 m/s 749 mmHg 26%
    08:00 +17°C° 0 mm 2 m/s 750 mmHg 23%
    09:00 +21°C° 0 mm 1 m/s 750 mmHg 21%
    10:00 +21°C° 0 mm 2 m/s 750 mmHg 21%
    11:00 +23°C° 0 mm 2 m/s 750 mmHg 21%
    12:00 +24°C° 0 mm 3 m/s 750 mmHg 21%
    13:00 +24°C° 0 mm 3 m/s 750 mmHg 23%
    14:00 +22°C° 0 mm 4 m/s 750 mmHg 25%
    15:00 +22°C° 0 mm 4 m/s 749 mmHg 26%
    16:00 +19°C° 0 mm 4 m/s 750 mmHg 32%
    17:00 +17°C° 0 mm 3 m/s 750 mmHg 38%
    18:00 +14°C° 0 mm 3 m/s 750 mmHg 43%
    19:00 +14°C° 0 mm 3 m/s 751 mmHg 41%
    20:00 +14°C° 0 mm 2 m/s 751 mmHg 38%
    21:00 +14°C° 0 mm 2 m/s 752 mmHg 36%
    22:00 +14°C° 0 mm 2 m/s 752 mmHg 34%
    23:00 +14°C° 0 mm 2 m/s 752 mmHg 33%

    24 Outubro, Terça-feira

    Tempo Temperatura Precipitação Vento Pressão Humidade
    00:00 +14°C° 0 mm 2 m/s 752 mmHg 32%
    01:00 +14°C° 0 mm 2 m/s 752 mmHg 31%
    02:00 +14°C° 0 mm 2 m/s 752 mmHg 31%
    03:00 +14°C° 0 mm 2 m/s 752 mmHg 30%
    04:00 +14°C° 0 mm 2 m/s 752 mmHg 30%
    05:00 +14°C° 0 mm 2 m/s 752 mmHg 31%
    06:00 +14°C° 0 mm 1 m/s 752 mmHg 31%
    07:00 +16°C° 0 mm 1 m/s 752 mmHg 28%
    08:00 +20°C° 0 mm 1 m/s 753 mmHg 25%
    09:00 +23°C° 0 mm 1 m/s 753 mmHg 22%
    10:00 +24°C° 0 mm 1 m/s 753 mmHg 22%
    11:00 +24°C° 0 mm 2 m/s 753 mmHg 22%
    12:00 +25°C° 0 mm 2 m/s 753 mmHg 22%
    13:00 +25°C° 0 mm 2 m/s 753 mmHg 25%
    14:00 +24°C° 0 mm 2 m/s 753 mmHg 27%
    15:00 +23°C° 0 mm 2 m/s 752 mmHg 30%
    16:00 +20°C° 0 mm 2 m/s 752 mmHg 36%
    17:00 +19°C° 0 mm 1 m/s 753 mmHg 42%
    18:00 +16°C° 0 mm 1 m/s 753 mmHg 48%
    19:00 +16°C° 0 mm 1 m/s 753 mmHg 47%
    20:00 +15°C° 0 mm 1 m/s 753 mmHg 45%
    21:00 +15°C° 0 mm 1 m/s 753 mmHg 44%
    22:00 +15°C° 0 mm 1 m/s 753 mmHg 43%
    23:00 +15°C° 0 mm 2 m/s 753 mmHg 42%
    Mostrar mais